Location: St. Louis
(38.6270°N, 90.1994°W)
Time: 19:39:36
(UTC-06:00)

Altair - Pass Details

Date: 04 December 2021
Orbit: 1501 x 1683 km, 47.2° (Epoch: 26 January)

Event Time Altitude Azimuth Distance (km) Brightness Sun altitude
Rises 19:20:18 0° 292° (WNW) 4,701 10.9 -30.7°
Reaches altitude 10° 19:23:29 10° 296° (WNW) 3,698 10.2 -31.4°
Maximum altitude 19:32:35 56° 14° (NNE) 1,746 7.5 -33.1°
Enters shadow 19:32:53 56° 21° (NNE) 1,749 7.5 -33.2°
